Time,TemperatureF,DewpointF,PressureIn,WindDirection,WindDirectionDegrees,WindSpeedMPH,WindSpeedGustMPH,Humidity,HourlyPrecipIn,Conditions,Clouds,dailyrainin,SoftwareType,DateUTC
2013-08-19 00:04:00,61.3,56.8,30.14,SSE,158,0.0,0.0,85,0.00,,,0.00,meteohub,2013-08-19 05:04:00,
2013-08-19 00:09:00,61.3,56.8,30.14,SSE,157,0.0,0.0,85,0.00,,,0.00,meteohub,2013-08-19 05:09:00,
2013-08-19 00:14:00,61.2,56.7,30.14,SSE,157,0.0,0.0,85,0.00,,,0.00,meteohub,2013-08-19 05:14:00,
2013-08-19 00:19:00,61.2,57.0,30.14,SSE,158,0.0,0.0,86,0.00,,,0.00,meteohub,2013-08-19 05:19:00,
2013-08-19 00:24:00,61.0,56.8,30.14,SSE,158,0.0,0.0,86,0.00,,,0.00,meteohub,2013-08-19 05:24:00,
2013-08-19 00:29:00,60.8,56.7,30.14,SSE,157,0.0,0.0,86,0.00,,,0.00,meteohub,2013-08-19 05:29:00,
2013-08-19 00:34:00,60.6,56.5,30.14,SSE,157,0.0,0.0,86,0.00,,,0.00,meteohub,2013-08-19 05:34:00,
2013-08-19 00:39:00,60.6,56.5,30.14,SSE,158,0.0,0.0,86,0.00,,,0.00,meteohub,2013-08-19 05:39:00,
2013-08-19 00:44:00,60.6,56.7,30.14,SSE,157,0.0,0.0,87,0.00,,,0.00,meteohub,2013-08-19 05:44:00,
2013-08-19 00:49:00,60.6,56.5,30.13,SSE,158,0.0,0.0,86,0.00,,,0.00,meteohub,2013-08-19 05:49:00,
2013-08-19 00:54:00,60.6,56.5,30.14,SSE,157,0.0,0.0,86,0.00,,,0.00,meteohub,2013-08-19 05:54:00,
2013-08-19 00:59:00,60.4,56.3,30.14,SSE,158,0.0,0.0,86,0.00,,,0.00,meteohub,2013-08-19 05:59:00,
2013-08-19 01:04:00,60.4,56.3,30.13,SSE,157,0.0,0.0,86,0.00,,,0.00,meteohub,2013-08-19 06:04:00,
2013-08-19 01:10:00,60.3,56.1,30.13,SSE,157,0.0,0.0,86,0.00,,,0.00,meteohub,2013-08-19 06:10:00,
2013-08-19 01:15:00,60.3,56.1,30.14,SSE,157,0.0,0.0,86,0.00,,,0.00,meteohub,2013-08-19 06:15:00,
2013-08-19 01:20:00,60.1,55.9,30.13,SSE,158,0.0,0.0,86,0.00,,,0.00,meteohub,2013-08-19 06:20:00,
2013-08-19 01:25:00,60.1,55.6,30.13,SSE,158,0.0,0.0,85,0.00,,,0.00,meteohub,2013-08-19 06:25:00,
2013-08-19 01:30:00,60.1,55.6,30.13,SSE,157,0.0,0.0,85,0.00,,,0.00,meteohub,2013-08-19 06:30:00,
2013-08-19 01:35:00,60.1,55.6,30.13,SSE,157,0.0,0.0,85,0.00,,,0.00,meteohub,2013-08-19 06:35:00,
2013-08-19 01:40:00,60.1,55.6,30.13,SSE,158,0.0,0.0,85,0.00,,,0.00,meteohub,2013-08-19 06:40:00,
2013-08-19 01:45:00,60.1,55.6,30.13,SSE,157,0.0,0.0,85,0.00,,,0.00,meteohub,2013-08-19 06:45:00,
2013-08-19 01:50:00,59.7,55.2,30.12,SSE,157,0.0,0.0,85,0.00,,,0.00,meteohub,2013-08-19 06:50:00,
2013-08-19 01:55:00,59.7,55.6,30.12,SSE,157,0.0,0.0,86,0.00,,,0.00,meteohub,2013-08-19 06:55:00,
2013-08-19 02:00:00,59.5,55.4,30.12,SSE,158,0.0,0.0,86,0.00,,,0.00,meteohub,2013-08-19 07:00:00,
2013-08-19 02:05:00,59.5,55.4,30.12,SSE,158,0.0,0.0,86,0.00,,,0.00,meteohub,2013-08-19 07:05:00,
2013-08-19 02:10:00,59.5,55.4,30.12,SSE,158,0.0,0.0,86,0.00,,,0.00,meteohub,2013-08-19 07:10:00,
2013-08-19 02:15:00,59.4,55.4,30.12,SSE,158,0.0,0.0,87,0.00,,,0.00,meteohub,2013-08-19 07:15:00,
2013-08-19 02:20:00,59.4,55.4,30.12,SSE,157,0.0,0.0,87,0.00,,,0.00,meteohub,2013-08-19 07:20:00,
2013-08-19 02:25:00,59.2,55.6,30.12,SSE,157,0.0,0.0,88,0.00,,,0.00,meteohub,2013-08-19 07:25:00,
2013-08-19 02:30:00,59.2,55.6,30.12,SSE,157,0.0,0.0,88,0.00,,,0.00,meteohub,2013-08-19 07:30:00,
2013-08-19 02:35:00,59.0,55.2,30.12,SSE,157,0.0,0.0,87,0.00,,,0.00,meteohub,2013-08-19 07:35:00,
2013-08-19 02:40:00,59.0,55.2,30.12,SSE,157,0.0,0.0,87,0.00,,,0.00,meteohub,2013-08-19 07:40:00,
2013-08-19 02:45:00,58.8,55.0,30.12,SSE,158,0.0,0.0,87,0.00,,,0.00,meteohub,2013-08-19 07:45:00,
2013-08-19 02:50:00,58.8,55.0,30.12,SSE,158,0.0,0.0,87,0.00,,,0.00,meteohub,2013-08-19 07:50:00,
2013-08-19 02:56:00,58.8,55.0,30.12,SSE,158,0.0,0.0,87,0.00,,,0.00,meteohub,2013-08-19 07:56:00,
2013-08-19 03:01:00,58.8,55.0,30.12,SSE,157,0.0,0.0,87,0.00,,,0.00,meteohub,2013-08-19 08:01:00,
2013-08-19 03:06:00,58.6,55.0,30.12,SSE,157,0.0,0.0,88,0.00,,,0.00,meteohub,2013-08-19 08:06:00,
2013-08-19 03:11:00,58.6,55.0,30.12,SSE,157,0.0,0.0,88,0.00,,,0.00,meteohub,2013-08-19 08:11:00,
2013-08-19 03:16:00,58.5,54.9,30.12,SSE,158,0.0,0.0,88,0.00,,,0.00,meteohub,2013-08-19 08:16:00,
2013-08-19 03:21:00,58.5,54.9,30.12,SSE,157,0.0,0.0,88,0.00,,,0.00,meteohub,2013-08-19 08:21:00,
2013-08-19 03:26:00,58.5,54.9,30.12,SSE,157,0.0,0.0,88,0.00,,,0.00,meteohub,2013-08-19 08:26:00,
2013-08-19 03:31:00,58.5,55.2,30.12,SSE,157,0.0,0.0,89,0.00,,,0.00,meteohub,2013-08-19 08:31:00,
2013-08-19 03:36:00,58.5,55.8,30.12,SSE,157,0.0,0.0,91,0.00,,,0.00,meteohub,2013-08-19 08:36:00,
2013-08-19 03:41:00,58.5,55.8,30.12,SSE,158,0.0,0.0,91,0.00,,,0.00,meteohub,2013-08-19 08:41:00,
2013-08-19 03:46:00,58.5,55.8,30.12,SSE,157,0.0,0.0,91,0.00,,,0.00,meteohub,2013-08-19 08:46:00,
2013-08-19 03:51:00,58.3,55.4,30.12,SSE,157,0.0,0.0,90,0.00,,,0.00,meteohub,2013-08-19 08:51:00,
2013-08-19 03:56:00,58.1,55.4,30.12,SSE,157,0.0,0.0,91,0.00,,,0.00,meteohub,2013-08-19 08:56:00,
2013-08-19 04:01:00,57.9,55.2,30.12,SSE,157,0.0,0.0,91,0.00,,,0.00,meteohub,2013-08-19 09:01:00,
2013-08-19 04:06:00,57.9,55.2,30.12,SSE,157,0.0,0.0,91,0.00,,,0.00,meteohub,2013-08-19 09:06:00,
2013-08-19 04:11:00,57.7,55.2,30.12,SSE,157,0.0,0.0,91,0.00,,,0.00,meteohub,2013-08-19 09:11:00,
2013-08-19 04:16:00,57.7,55.2,30.12,SSE,157,0.0,0.0,91,0.00,,,0.00,meteohub,2013-08-19 09:16:00,
2013-08-19 04:21:00,57.7,55.4,30.12,SSE,157,0.0,0.0,92,0.00,,,0.00,meteohub,2013-08-19 09:21:00,
2013-08-19 04:26:00,57.7,55.4,30.12,SSE,157,0.0,0.0,92,0.00,,,0.00,meteohub,2013-08-19 09:26:00,
2013-08-19 04:31:00,57.7,55.4,30.12,SSE,157,0.0,0.0,92,0.00,,,0.00,meteohub,2013-08-19 09:31:00,
2013-08-19 04:36:00,57.6,55.2,30.12,SSE,157,0.0,0.0,92,0.00,,,0.00,meteohub,2013-08-19 09:36:00,
2013-08-19 04:41:00,57.6,55.2,30.12,SSE,157,0.0,0.0,92,0.00,,,0.00,meteohub,2013-08-19 09:41:00,
2013-08-19 04:47:00,57.6,55.2,30.12,SSE,157,0.0,0.0,92,0.00,,,0.00,meteohub,2013-08-19 09:47:00,
2013-08-19 04:52:00,57.6,55.2,30.12,SSE,157,0.0,0.0,92,0.00,,,0.00,meteohub,2013-08-19 09:52:00,
2013-08-19 04:57:00,57.6,55.2,30.12,SSE,157,0.0,0.0,92,0.00,,,0.00,meteohub,2013-08-19 09:57:00,
2013-08-19 05:02:00,57.6,55.2,30.12,SSE,157,0.0,0.0,92,0.00,,,0.00,meteohub,2013-08-19 10:02:00,
2013-08-19 05:07:00,57.6,55.2,30.12,SSE,157,0.0,0.0,92,0.00,,,0.00,meteohub,2013-08-19 10:07:00,
2013-08-19 05:12:00,57.6,55.2,30.12,SSE,157,0.0,0.0,92,0.00,,,0.00,meteohub,2013-08-19 10:12:00,
2013-08-19 05:17:00,57.4,55.0,30.12,SSE,157,0.0,0.0,92,0.00,,,0.00,meteohub,2013-08-19 10:17:00,
2013-08-19 05:22:00,57.4,55.0,30.12,SSE,157,0.0,0.0,92,0.00,,,0.00,meteohub,2013-08-19 10:22:00,
2013-08-19 05:27:00,57.4,55.0,30.12,SSE,157,0.0,0.0,92,0.00,,,0.00,meteohub,2013-08-19 10:27:00,
2013-08-19 05:32:00,57.2,55.2,30.12,SSE,157,0.0,0.0,93,0.00,,,0.00,meteohub,2013-08-19 10:32:00,
2013-08-19 05:37:00,57.2,55.2,30.12,SSE,157,0.0,0.0,93,0.00,,,0.00,meteohub,2013-08-19 10:37:00,
2013-08-19 05:42:00,57.2,55.2,30.13,SSE,157,0.0,0.0,93,0.00,,,0.00,meteohub,2013-08-19 10:42:00,
2013-08-19 05:47:00,57.0,55.0,30.13,SSE,157,0.0,0.0,93,0.00,,,0.00,meteohub,2013-08-19 10:47:00,
2013-08-19 05:52:00,57.0,55.0,30.13,SSE,157,0.0,0.0,93,0.00,,,0.00,meteohub,2013-08-19 10:52:00,
2013-08-19 05:57:00,57.0,55.0,30.13,SSE,157,0.0,0.0,93,0.00,,,0.00,meteohub,2013-08-19 10:57:00,
2013-08-19 06:02:00,57.0,55.0,30.14,SSE,157,0.0,0.0,93,0.00,,,0.00,meteohub,2013-08-19 11:02:00,
2013-08-19 06:07:00,57.0,55.0,30.14,SSE,157,0.0,0.0,93,0.00,,,0.00,meteohub,2013-08-19 11:07:00,
2013-08-19 06:12:00,57.0,55.0,30.14,SSE,157,0.0,0.0,93,0.00,,,0.00,meteohub,2013-08-19 11:12:00,
2013-08-19 06:17:00,57.0,55.0,30.14,SSE,157,0.0,0.0,93,0.00,,,0.00,meteohub,2013-08-19 11:17:00,
2013-08-19 06:22:00,57.0,55.0,30.14,SSE,157,0.0,0.0,93,0.00,,,0.00,meteohub,2013-08-19 11:22:00,
2013-08-19 06:27:00,57.0,55.0,30.14,SSE,157,0.0,0.0,93,0.00,,,0.00,meteohub,2013-08-19 11:27:00,
2013-08-19 06:32:00,57.0,55.0,30.14,SSE,157,0.0,0.0,93,0.00,,,0.00,meteohub,2013-08-19 11:32:00,
2013-08-19 06:37:00,57.4,55.6,30.14,SSE,157,0.0,0.0,94,0.00,,,0.00,meteohub,2013-08-19 11:37:00,
2013-08-19 06:42:00,57.4,55.6,30.14,SSE,157,0.0,0.0,94,0.00,,,0.00,meteohub,2013-08-19 11:42:00,
2013-08-19 06:47:00,57.4,55.6,30.14,SSE,157,0.0,0.0,94,0.00,,,0.00,meteohub,2013-08-19 11:47:00,
2013-08-19 06:52:00,57.4,55.6,30.14,SSE,157,0.0,0.0,94,0.00,,,0.00,meteohub,2013-08-19 11:52:00,
2013-08-19 06:57:00,57.4,55.6,30.14,SSE,157,0.0,0.0,94,0.00,,,0.00,meteohub,2013-08-19 11:57:00,
2013-08-19 07:02:00,57.6,55.8,30.14,SSE,157,0.0,0.0,94,0.00,,,0.00,meteohub,2013-08-19 12:02:00,
2013-08-19 07:07:00,57.6,55.8,30.14,SSE,157,0.0,0.0,94,0.00,,,0.00,meteohub,2013-08-19 12:07:00,
2013-08-19 07:12:00,57.6,55.8,30.14,SSE,157,0.0,0.0,94,0.00,,,0.00,meteohub,2013-08-19 12:12:00,
2013-08-19 07:17:00,57.7,55.9,30.14,SSE,157,0.0,0.0,94,0.00,,,0.00,meteohub,2013-08-19 12:17:00,
2013-08-19 07:22:00,57.9,56.1,30.14,SSE,157,0.0,0.0,94,0.00,,,0.00,meteohub,2013-08-19 12:22:00,
2013-08-19 07:27:00,58.3,56.5,30.14,SSE,157,0.0,0.0,94,0.00,,,0.00,meteohub,2013-08-19 12:27:00,
2013-08-19 07:32:00,58.5,56.7,30.14,SSE,157,0.0,0.0,94,0.00,,,0.00,meteohub,2013-08-19 12:32:00,
2013-08-19 07:37:00,59.0,57.2,30.14,SSE,158,0.0,0.0,94,0.00,,,0.00,meteohub,2013-08-19 12:37:00,
2013-08-19 07:42:00,59.5,57.7,30.14,SW,214,0.0,0.0,94,0.00,,,0.00,meteohub,2013-08-19 12:42:00,
2013-08-19 07:47:00,60.4,58.6,30.14,West,281,0.0,0.0,94,0.00,,,0.00,meteohub,2013-08-19 12:47:00,
2013-08-19 07:52:00,61.2,58.8,30.14,West,281,0.0,0.0,92,0.00,,,0.00,meteohub,2013-08-19 12:52:00,
2013-08-19 07:57:00,61.7,59.0,30.14,West,281,0.0,0.0,91,0.00,,,0.00,meteohub,2013-08-19 12:57:00,
2013-08-19 08:02:00,62.2,59.5,30.14,West,281,0.0,0.0,91,0.00,,,0.00,meteohub,2013-08-19 13:02:00,
2013-08-19 08:07:00,63.1,59.9,30.14,West,281,0.0,0.0,89,0.00,,,0.00,meteohub,2013-08-19 13:07:00,
2013-08-19 08:12:00,63.9,60.3,30.14,WNW,303,0.0,2.0,88,0.00,,,0.00,meteohub,2013-08-19 13:12:00,
2013-08-19 08:17:00,64.6,60.6,30.14,WNW,303,0.0,2.0,87,0.00,,,0.00,meteohub,2013-08-19 13:17:00,
2013-08-19 08:22:00,64.9,60.6,30.14,WNW,294,1.0,2.0,86,0.00,,,0.00,meteohub,2013-08-19 13:22:00,
2013-08-19 08:27:00,65.5,60.8,30.14,NW,314,0.0,2.0,85,0.00,,,0.00,meteohub,2013-08-19 13:27:00,
2013-08-19 08:32:00,65.7,60.6,30.14,NW,310,0.0,3.0,84,0.00,,,0.00,meteohub,2013-08-19 13:32:00,
2013-08-19 08:37:00,65.8,60.8,30.14,West,279,0.0,3.0,84,0.00,,,0.00,meteohub,2013-08-19 13:37:00,
2013-08-19 08:42:00,66.0,61.0,30.13,WSW,251,0.0,3.0,84,0.00,,,0.00,meteohub,2013-08-19 13:42:00,
2013-08-19 08:47:00,66.6,61.5,30.13,NW,304,0.0,3.0,84,0.00,,,0.00,meteohub,2013-08-19 13:47:00,
2013-08-19 08:52:00,67.5,61.7,30.13,NW,305,0.0,6.0,82,0.00,,,0.00,meteohub,2013-08-19 13:52:00,
2013-08-19 08:57:00,68.2,62.1,30.13,NW,312,0.0,6.0,81,0.00,,,0.00,meteohub,2013-08-19 13:57:00,
2013-08-19 09:02:00,68.7,62.6,30.13,WNW,299,0.0,6.0,81,0.00,,,0.00,meteohub,2013-08-19 14:02:00,
2013-08-19 09:07:00,69.3,62.4,30.12,NW,324,2.0,6.0,79,0.00,,,0.00,meteohub,2013-08-19 14:07:00,
2013-08-19 09:12:00,69.8,62.6,30.12,WNW,289,1.0,7.0,78,0.00,,,0.00,meteohub,2013-08-19 14:12:00,
2013-08-19 09:17:00,70.2,63.3,30.12,WNW,294,0.0,7.0,79,0.00,,,0.00,meteohub,2013-08-19 14:17:00,
2013-08-19 09:22:00,70.5,63.7,30.12,WNW,302,0.0,7.0,79,0.00,,,0.00,meteohub,2013-08-19 14:22:00,
2013-08-19 09:27:00,70.9,63.7,30.12,WNW,299,0.0,6.0,78,0.00,,,0.00,meteohub,2013-08-19 14:27:00,
2013-08-19 09:32:00,71.4,63.5,30.12,WNW,299,1.0,6.0,76,0.00,,,0.00,meteohub,2013-08-19 14:32:00,
2013-08-19 09:37:00,72.1,64.6,30.12,WNW,299,0.0,6.0,77,0.00,,,0.00,meteohub,2013-08-19 14:37:00,
2013-08-19 09:42:00,72.5,64.0,30.12,NW,315,1.0,2.0,75,0.00,,,0.00,meteohub,2013-08-19 14:42:00,
2013-08-19 09:47:00,72.9,64.4,30.12,NW,308,2.0,5.0,75,0.00,,,0.00,meteohub,2013-08-19 14:47:00,
2013-08-19 09:52:00,73.2,64.4,30.12,South,169,2.0,8.0,74,0.00,,,0.00,meteohub,2013-08-19 14:52:00,
2013-08-19 09:57:00,73.6,64.0,30.12,NW,305,1.0,8.0,72,0.00,,,0.00,meteohub,2013-08-19 14:57:00,
2013-08-19 10:02:00,73.8,63.7,30.12,WNW,301,1.0,8.0,71,0.00,,,0.00,meteohub,2013-08-19 15:02:00,
2013-08-19 10:07:00,74.1,64.0,30.12,West,269,0.0,7.0,71,0.00,,,0.00,meteohub,2013-08-19 15:07:00,
2013-08-19 10:12:00,74.5,64.9,30.12,NW,320,0.0,7.0,72,0.00,,,0.00,meteohub,2013-08-19 15:12:00,
2013-08-19 10:17:00,74.8,64.8,30.12,NW,312,3.0,6.0,71,0.00,,,0.00,meteohub,2013-08-19 15:17:00,
2013-08-19 10:22:00,75.0,64.9,30.12,WNW,298,1.0,8.0,71,0.00,,,0.00,meteohub,2013-08-19 15:22:00,
2013-08-19 10:27:00,75.4,65.3,30.12,NW,321,3.0,9.0,71,0.00,,,0.00,meteohub,2013-08-19 15:27:00,
2013-08-19 10:32:00,75.4,64.9,30.12,WNW,298,6.0,9.0,70,0.00,,,0.00,meteohub,2013-08-19 15:32:00,
2013-08-19 10:37:00,75.6,65.1,30.12,WNW,289,2.0,7.0,70,0.00,,,0.00,meteohub,2013-08-19 15:37:00,
2013-08-19 10:42:00,75.4,64.6,30.12,NW,304,1.0,9.0,69,0.00,,,0.00,meteohub,2013-08-19 15:42:00,
2013-08-19 10:48:00,75.4,64.9,30.12,NW,325,1.0,9.0,70,0.00,,,0.00,meteohub,2013-08-19 15:48:00,
2013-08-19 10:53:00,75.6,64.8,30.12,WNW,289,0.0,9.0,69,0.00,,,0.00,meteohub,2013-08-19 15:53:00,
2013-08-19 10:58:00,75.9,64.9,30.12,WNW,295,5.0,10.0,69,0.00,,,0.00,meteohub,2013-08-19 15:58:00,
2013-08-19 11:03:00,75.9,64.9,30.12,WNW,284,2.0,10.0,69,0.00,,,0.00,meteohub,2013-08-19 16:03:00,
2013-08-19 11:08:00,76.3,64.6,30.12,NW,312,6.0,10.0,67,0.00,,,0.00,meteohub,2013-08-19 16:08:00,
2013-08-19 11:14:00,76.3,65.3,30.12,WNW,287,1.0,13.0,69,0.00,,,0.00,meteohub,2013-08-19 16:14:00,
2013-08-19 11:19:00,76.3,64.6,30.12,West,269,0.0,13.0,67,0.00,,,0.00,meteohub,2013-08-19 16:19:00,
2013-08-19 11:24:00,76.6,65.3,30.12,WNW,302,1.0,9.0,68,0.00,,,0.00,meteohub,2013-08-19 16:24:00,
2013-08-19 11:29:00,76.5,64.2,30.12,WNW,295,0.0,9.0,66,0.00,,,0.00,meteohub,2013-08-19 16:29:00,
2013-08-19 11:35:00,76.8,64.6,30.11,WSW,258,4.0,12.0,66,0.00,,,0.00,meteohub,2013-08-19 16:35:00,
2013-08-19 11:40:00,77.2,64.9,30.11,SSW,209,0.0,8.0,66,0.00,,,0.00,meteohub,2013-08-19 16:40:00,
2013-08-19 11:45:00,77.5,64.8,30.11,WSW,253,0.0,8.0,65,0.00,,,0.00,meteohub,2013-08-19 16:45:00,
2013-08-19 11:50:00,78.1,64.4,30.11,WNW,294,2.0,8.0,63,0.00,,,0.00,meteohub,2013-08-19 16:50:00,
2013-08-19 11:56:00,78.1,64.4,30.11,NW,325,8.0,9.0,63,0.00,,,0.00,meteohub,2013-08-19 16:56:00,
2013-08-19 12:01:00,78.3,62.2,30.11,NW,320,0.0,11.0,58,0.00,,,0.00,meteohub,2013-08-19 17:01:00,
2013-08-19 12:06:00,78.4,62.4,30.11,WNW,292,4.0,11.0,58,0.00,,,0.00,meteohub,2013-08-19 17:06:00,
2013-08-19 12:11:00,78.6,64.0,30.10,WNW,298,4.0,11.0,61,0.00,,,0.00,meteohub,2013-08-19 17:11:00,
2013-08-19 12:16:00,78.6,62.1,30.10,NW,304,3.0,9.0,57,0.00,,,0.00,meteohub,2013-08-19 17:16:00,
2013-08-19 12:21:00,78.8,62.8,30.10,NW,306,0.0,9.0,58,0.00,,,0.00,meteohub,2013-08-19 17:21:00,
2013-08-19 12:26:00,78.8,62.8,30.10,WNW,292,0.0,8.0,58,0.00,,,0.00,meteohub,2013-08-19 17:26:00,
2013-08-19 12:32:00,78.4,62.4,30.10,NNW,329,1.0,8.0,58,0.00,,,0.00,meteohub,2013-08-19 17:32:00,
2013-08-19 12:37:00,78.4,63.0,30.09,WNW,296,1.0,8.0,59,0.00,,,0.00,meteohub,2013-08-19 17:37:00,
2013-08-19 12:42:00,78.8,63.3,30.09,WNW,292,0.0,10.0,59,0.00,,,0.00,meteohub,2013-08-19 17:42:00,
2013-08-19 12:47:00,79.0,61.9,30.09,WNW,299,0.0,10.0,56,0.00,,,0.00,meteohub,2013-08-19 17:47:00,
2013-08-19 12:52:00,79.0,63.0,30.09,WNW,298,4.0,10.0,58,0.00,,,0.00,meteohub,2013-08-19 17:52:00,
2013-08-19 12:57:00,79.3,63.7,30.09,WNW,286,1.0,8.0,59,0.00,,,0.00,meteohub,2013-08-19 17:57:00,
2013-08-19 13:02:00,79.9,63.3,30.09,WNW,303,4.0,8.0,57,0.00,,,0.00,meteohub,2013-08-19 18:02:00,
2013-08-19 13:07:00,79.9,63.3,30.09,NW,317,5.0,7.0,57,0.00,,,0.00,meteohub,2013-08-19 18:07:00,
2013-08-19 13:12:00,79.5,62.4,30.09,WNW,288,8.0,11.0,56,0.00,,,0.00,meteohub,2013-08-19 18:12:00,
2013-08-19 13:17:00,79.5,62.4,30.09,WNW,303,0.0,11.0,56,0.00,,,0.00,meteohub,2013-08-19 18:17:00,
2013-08-19 13:22:00,79.9,62.8,30.09,WNW,290,0.0,11.0,56,0.00,,,0.00,meteohub,2013-08-19 18:22:00,
2013-08-19 13:27:00,80.1,63.0,30.09,NW,305,2.0,8.0,56,0.00,,,0.00,meteohub,2013-08-19 18:27:00,
2013-08-19 13:32:00,80.4,62.2,30.09,NW,314,4.0,7.0,54,0.00,,,0.00,meteohub,2013-08-19 18:32:00,
2013-08-19 13:37:00,80.8,62.1,30.08,NW,323,2.0,7.0,53,0.00,,,0.00,meteohub,2013-08-19 18:37:00,
2013-08-19 13:42:00,80.8,63.1,30.08,West,277,4.0,7.0,55,0.00,,,0.00,meteohub,2013-08-19 18:42:00,
2013-08-19 13:47:00,80.8,64.0,30.08,WNW,295,5.0,7.0,57,0.00,,,0.00,meteohub,2013-08-19 18:47:00,
2013-08-19 13:52:00,80.8,63.7,30.08,NNW,338,0.0,8.0,56,0.00,,,0.00,meteohub,2013-08-19 18:52:00,
2013-08-19 13:57:00,81.0,62.2,30.07,West,271,1.0,9.0,53,0.00,,,0.00,meteohub,2013-08-19 18:57:00,
2013-08-19 14:02:00,81.0,62.8,30.07,NW,310,2.0,9.0,54,0.00,,,0.00,meteohub,2013-08-19 19:02:00,
2013-08-19 14:07:00,81.0,62.2,30.07,SW,232,1.0,8.0,53,0.00,,,0.00,meteohub,2013-08-19 19:07:00,
2013-08-19 14:12:00,81.1,63.0,30.07,WNW,298,2.0,10.0,54,0.00,,,0.00,meteohub,2013-08-19 19:12:00,
2013-08-19 14:17:00,81.3,64.0,30.07,WSW,238,0.0,10.0,56,0.00,,,0.00,meteohub,2013-08-19 19:17:00,
2013-08-19 14:22:00,81.3,63.1,30.07,South,184,0.0,9.0,54,0.00,,,0.00,meteohub,2013-08-19 19:22:00,
2013-08-19 14:27:00,81.3,62.6,30.07,WNW,294,1.0,9.0,53,0.00,,,0.00,meteohub,2013-08-19 19:27:00,
2013-08-19 14:32:00,80.8,63.1,30.07,NW,309,0.0,9.0,55,0.00,,,0.00,meteohub,2013-08-19 19:32:00,
2013-08-19 14:37:00,80.2,62.6,30.06,WNW,298,4.0,11.0,55,0.00,,,0.00,meteohub,2013-08-19 19:37:00,
2013-08-19 14:42:00,79.9,63.9,30.06,WSW,250,0.0,11.0,58,0.00,,,0.00,meteohub,2013-08-19 19:42:00,
2013-08-19 14:47:00,79.9,63.9,30.06,WSW,243,0.0,9.0,58,0.00,,,0.00,meteohub,2013-08-19 19:47:00,
2013-08-19 14:52:00,79.9,63.9,30.06,West,269,1.0,8.0,58,0.00,,,0.00,meteohub,2013-08-19 19:52:00,
2013-08-19 14:57:00,80.1,64.4,30.06,WNW,298,3.0,8.0,59,0.00,,,0.00,meteohub,2013-08-19 19:57:00,
2013-08-19 15:02:00,80.1,63.9,30.06,WNW,296,1.0,9.0,58,0.00,,,0.00,meteohub,2013-08-19 20:02:00,
2013-08-19 15:07:00,80.1,64.4,30.06,WNW,287,1.0,10.0,59,0.00,,,0.00,meteohub,2013-08-19 20:07:00,
2013-08-19 15:12:00,80.1,63.9,30.06,West,269,1.0,11.0,58,0.00,,,0.00,meteohub,2013-08-19 20:12:00,
2013-08-19 15:17:00,80.1,63.9,30.06,NNW,328,3.0,11.0,58,0.00,,,0.00,meteohub,2013-08-19 20:17:00,
2013-08-19 15:22:00,80.1,64.4,30.06,WSW,244,1.0,11.0,59,0.00,,,0.00,meteohub,2013-08-19 20:22:00,
2013-08-19 15:27:00,80.1,64.4,30.06,WNW,297,0.0,5.0,59,0.00,,,0.00,meteohub,2013-08-19 20:27:00,
2013-08-19 15:32:00,80.1,64.4,30.06,West,268,0.0,5.0,59,0.00,,,0.00,meteohub,2013-08-19 20:32:00,
2013-08-19 15:38:00,80.1,64.9,30.05,WSW,238,0.0,5.0,60,0.00,,,0.00,meteohub,2013-08-19 20:38:00,
2013-08-19 15:43:00,80.2,65.5,30.05,WNW,296,0.0,5.0,61,0.00,,,0.00,meteohub,2013-08-19 20:43:00,
2013-08-19 15:48:00,80.4,65.3,30.05,NNW,342,1.0,4.0,60,0.00,,,0.00,meteohub,2013-08-19 20:48:00,
2013-08-19 15:53:00,80.4,62.8,30.05,WNW,303,0.0,9.0,55,0.00,,,0.00,meteohub,2013-08-19 20:53:00,
2013-08-19 15:58:00,80.8,64.0,30.05,NW,322,0.0,12.0,57,0.00,,,0.00,meteohub,2013-08-19 20:58:00,
2013-08-19 16:03:00,81.0,63.3,30.05,NW,313,4.0,12.0,55,0.00,,,0.00,meteohub,2013-08-19 21:03:00,
2013-08-19 16:09:00,80.8,63.7,30.05,NNW,333,4.0,13.0,56,0.00,,,0.00,meteohub,2013-08-19 21:09:00,
2013-08-19 16:14:00,80.4,63.9,30.05,WNW,297,1.0,13.0,57,0.00,,,0.00,meteohub,2013-08-19 21:14:00,
2013-08-19 16:19:00,80.6,64.4,30.05,NW,312,2.0,13.0,58,0.00,,,0.00,meteohub,2013-08-19 21:19:00,
2013-08-19 16:24:00,80.6,64.0,30.05,WNW,287,2.0,10.0,57,0.00,,,0.00,meteohub,2013-08-19 21:24:00,
2013-08-19 16:29:00,80.8,62.6,30.05,WNW,292,1.0,12.0,54,0.00,,,0.00,meteohub,2013-08-19 21:29:00,
2013-08-19 16:34:00,80.6,63.0,30.05,WNW,300,4.0,12.0,55,0.00,,,0.00,meteohub,2013-08-19 21:34:00,
2013-08-19 16:39:00,80.2,62.6,30.05,NW,307,4.0,8.0,55,0.00,,,0.00,meteohub,2013-08-19 21:39:00,
2013-08-19 16:44:00,80.2,62.6,30.04,West,272,7.0,12.0,55,0.00,,,0.00,meteohub,2013-08-19 21:44:00,
2013-08-19 16:49:00,80.1,63.0,30.05,SW,228,5.0,12.0,56,0.00,,,0.00,meteohub,2013-08-19 21:49:00,
2013-08-19 16:55:00,80.1,63.5,30.05,NW,319,2.0,12.0,57,0.00,,,0.00,meteohub,2013-08-19 21:55:00,
2013-08-19 17:00:00,80.1,63.9,30.05,NNW,333,8.0,12.0,58,0.00,,,0.00,meteohub,2013-08-19 22:00:00,
2013-08-19 17:05:00,79.9,64.2,30.05,WNW,297,7.0,15.0,59,0.00,,,0.00,meteohub,2013-08-19 22:05:00,
2013-08-19 17:10:00,79.5,64.4,30.05,NW,321,2.0,15.0,60,0.00,,,0.00,meteohub,2013-08-19 22:10:00,
2013-08-19 17:15:00,79.3,64.2,30.04,WNW,299,5.0,13.0,60,0.00,,,0.00,meteohub,2013-08-19 22:15:00,
2013-08-19 17:20:00,79.3,64.8,30.05,NW,317,4.0,13.0,61,0.00,,,0.00,meteohub,2013-08-19 22:20:00,
2013-08-19 17:26:00,79.0,63.9,30.05,WNW,299,0.0,9.0,60,0.00,,,0.00,meteohub,2013-08-19 22:26:00,
2013-08-19 17:31:00,78.8,64.2,30.05,West,266,2.0,8.0,61,0.00,,,0.00,meteohub,2013-08-19 22:31:00,
2013-08-19 17:36:00,78.6,64.0,30.05,WNW,289,1.0,8.0,61,0.00,,,0.00,meteohub,2013-08-19 22:36:00,
2013-08-19 17:41:00,78.4,64.4,30.05,WNW,298,4.0,7.0,62,0.00,,,0.00,meteohub,2013-08-19 22:41:00,
2013-08-19 17:46:00,78.3,64.6,30.05,WNW,292,0.0,7.0,63,0.00,,,0.00,meteohub,2013-08-19 22:46:00,
2013-08-19 17:51:00,78.1,64.4,30.05,WNW,296,0.0,5.0,63,0.00,,,0.00,meteohub,2013-08-19 22:51:00,
2013-08-19 17:56:00,78.1,64.9,30.05,WNW,296,0.0,5.0,64,0.00,,,0.00,meteohub,2013-08-19 22:56:00,
2013-08-19 18:01:00,77.9,65.1,30.04,WNW,292,0.0,2.0,65,0.00,,,0.00,meteohub,2013-08-19 23:01:00,
2013-08-19 18:06:00,77.7,65.5,30.04,WNW,292,0.0,2.0,66,0.00,,,0.00,meteohub,2013-08-19 23:06:00,
2013-08-19 18:11:00,77.4,65.5,30.04,WNW,292,0.0,2.0,67,0.00,,,0.00,meteohub,2013-08-19 23:11:00,
2013-08-19 18:16:00,77.2,65.3,30.04,WNW,292,0.0,1.0,67,0.00,,,0.00,meteohub,2013-08-19 23:16:00,
2013-08-19 18:21:00,76.8,64.9,30.04,WNW,292,0.0,0.0,67,0.00,,,0.00,meteohub,2013-08-19 23:21:00,
2013-08-19 18:26:00,76.6,64.9,30.04,WNW,292,0.0,1.0,67,0.00,,,0.00,meteohub,2013-08-19 23:26:00,
2013-08-19 18:31:00,76.5,65.1,30.04,WNW,293,0.0,1.0,68,0.00,,,0.00,meteohub,2013-08-19 23:31:00,
2013-08-19 18:36:00,76.3,64.9,30.04,WNW,292,0.0,0.0,68,0.00,,,0.00,meteohub,2013-08-19 23:36:00,
2013-08-19 18:42:00,76.1,64.8,30.04,WNW,292,0.0,1.0,68,0.00,,,0.00,meteohub,2013-08-19 23:42:00,
2013-08-19 18:47:00,75.9,64.9,30.04,West,270,0.0,1.0,69,0.00,,,0.00,meteohub,2013-08-19 23:47:00,
2013-08-19 18:52:00,75.9,64.9,30.04,West,270,0.0,4.0,69,0.00,,,0.00,meteohub,2013-08-19 23:52:00,
2013-08-19 18:57:00,75.7,64.8,30.04,West,269,0.0,4.0,69,0.00,,,0.00,meteohub,2013-08-19 23:57:00,
2013-08-19 19:02:00,75.7,65.3,30.04,West,270,0.0,4.0,70,0.00,,,0.00,meteohub,2013-08-20 00:02:00,
2013-08-19 19:07:00,75.6,65.1,30.04,West,270,0.0,0.0,70,0.00,,,0.00,meteohub,2013-08-20 00:07:00,
2013-08-19 19:12:00,75.4,65.3,30.04,West,270,0.0,0.0,71,0.00,,,0.00,meteohub,2013-08-20 00:12:00,
2013-08-19 19:17:00,75.0,64.9,30.04,West,269,0.0,0.0,71,0.00,,,0.00,meteohub,2013-08-20 00:17:00,
2013-08-19 19:22:00,74.8,65.1,30.04,West,269,0.0,0.0,72,0.00,,,0.00,meteohub,2013-08-20 00:22:00,
2013-08-19 19:27:00,74.7,65.5,30.04,West,269,0.0,0.0,73,0.00,,,0.00,meteohub,2013-08-20 00:27:00,
2013-08-19 19:32:00,74.1,65.3,30.04,West,270,0.0,0.0,74,0.00,,,0.00,meteohub,2013-08-20 00:32:00,
2013-08-19 19:37:00,73.8,64.9,30.04,West,269,0.0,0.0,74,0.00,,,0.00,meteohub,2013-08-20 00:37:00,
2013-08-19 19:42:00,73.6,64.8,30.04,West,269,0.0,0.0,74,0.00,,,0.00,meteohub,2013-08-20 00:42:00,
2013-08-19 19:47:00,73.6,65.1,30.04,West,269,0.0,0.0,75,0.00,,,0.00,meteohub,2013-08-20 00:47:00,
2013-08-19 19:52:00,73.4,64.9,30.04,West,270,0.0,0.0,75,0.00,,,0.00,meteohub,2013-08-20 00:52:00,
2013-08-19 19:57:00,73.4,64.9,30.04,West,269,0.0,0.0,75,0.00,,,0.00,meteohub,2013-08-20 00:57:00,
2013-08-19 20:02:00,73.2,64.8,30.04,West,269,0.0,0.0,75,0.00,,,0.00,meteohub,2013-08-20 01:02:00,
2013-08-19 20:07:00,73.0,64.9,30.04,West,269,0.0,0.0,76,0.00,,,0.00,meteohub,2013-08-20 01:07:00,
2013-08-19 20:12:00,72.9,65.3,30.04,West,269,0.0,0.0,77,0.00,,,0.00,meteohub,2013-08-20 01:12:00,
2013-08-19 20:17:00,72.7,65.5,30.04,West,269,0.0,0.0,78,0.00,,,0.00,meteohub,2013-08-20 01:17:00,
2013-08-19 20:22:00,72.5,65.7,30.04,West,270,0.0,0.0,79,0.00,,,0.00,meteohub,2013-08-20 01:22:00,
2013-08-19 20:27:00,72.3,65.5,30.04,West,269,0.0,0.0,79,0.00,,,0.00,meteohub,2013-08-20 01:27:00,
2013-08-19 20:32:00,72.1,65.3,30.05,West,269,0.0,0.0,79,0.00,,,0.00,meteohub,2013-08-20 01:32:00,
2013-08-19 20:37:00,72.0,65.1,30.05,West,269,0.0,0.0,79,0.00,,,0.00,meteohub,2013-08-20 01:37:00,
2013-08-19 20:42:00,72.0,65.5,30.05,West,269,0.0,0.0,80,0.00,,,0.00,meteohub,2013-08-20 01:42:00,
2013-08-19 20:47:00,71.8,65.3,30.05,West,270,0.0,0.0,80,0.00,,,0.00,meteohub,2013-08-20 01:47:00,
2013-08-19 20:52:00,71.8,64.9,30.05,West,270,0.0,0.0,79,0.00,,,0.00,meteohub,2013-08-20 01:52:00,
2013-08-19 20:57:00,71.4,64.9,30.05,West,270,0.0,0.0,80,0.00,,,0.00,meteohub,2013-08-20 01:57:00,
2013-08-19 21:02:00,71.4,66.0,30.05,West,270,0.0,0.0,83,0.00,,,0.00,meteohub,2013-08-20 02:02:00,
2013-08-19 21:07:00,71.2,65.5,30.05,West,270,0.0,0.0,82,0.00,,,0.00,meteohub,2013-08-20 02:07:00,
2013-08-19 21:12:00,71.1,65.3,30.05,West,270,0.0,0.0,82,0.00,,,0.00,meteohub,2013-08-20 02:12:00,
2013-08-19 21:17:00,70.9,64.8,30.05,West,270,0.0,0.0,81,0.00,,,0.00,meteohub,2013-08-20 02:17:00,
2013-08-19 21:22:00,70.7,64.6,30.05,West,270,0.0,0.0,81,0.00,,,0.00,meteohub,2013-08-20 02:22:00,
2013-08-19 21:27:00,70.5,64.4,30.05,West,270,0.0,0.0,81,0.00,,,0.00,meteohub,2013-08-20 02:27:00,
2013-08-19 21:32:00,70.3,64.2,30.05,West,270,0.0,0.0,81,0.00,,,0.00,meteohub,2013-08-20 02:32:00,
2013-08-19 21:37:00,70.3,64.2,30.05,West,270,0.0,0.0,81,0.00,,,0.00,meteohub,2013-08-20 02:37:00,
2013-08-19 21:42:00,70.2,64.0,30.05,West,270,0.0,0.0,81,0.00,,,0.00,meteohub,2013-08-20 02:42:00,
2013-08-19 21:48:00,70.2,64.0,30.05,West,270,0.0,0.0,81,0.00,,,0.00,meteohub,2013-08-20 02:48:00,
2013-08-19 21:53:00,70.0,63.9,30.06,West,270,0.0,0.0,81,0.00,,,0.00,meteohub,2013-08-20 02:53:00,
2013-08-19 21:58:00,69.8,64.0,30.05,West,270,0.0,0.0,82,0.00,,,0.00,meteohub,2013-08-20 02:58:00,
2013-08-19 22:03:00,69.6,63.9,30.06,West,270,0.0,0.0,82,0.00,,,0.00,meteohub,2013-08-20 03:03:00,
2013-08-19 22:08:00,69.4,63.7,30.05,West,270,0.0,0.0,82,0.00,,,0.00,meteohub,2013-08-20 03:08:00,
2013-08-19 22:13:00,69.3,63.5,30.05,West,270,0.0,0.0,82,0.00,,,0.00,meteohub,2013-08-20 03:13:00,
2013-08-19 22:18:00,69.1,63.7,30.05,West,270,0.0,0.0,83,0.00,,,0.00,meteohub,2013-08-20 03:18:00,
2013-08-19 22:23:00,69.1,64.0,30.06,West,270,0.0,0.0,84,0.00,,,0.00,meteohub,2013-08-20 03:23:00,
2013-08-19 22:28:00,68.9,63.5,30.05,West,270,0.0,0.0,83,0.00,,,0.00,meteohub,2013-08-20 03:28:00,
2013-08-19 22:33:00,68.7,63.7,30.06,West,270,0.0,0.0,84,0.00,,,0.00,meteohub,2013-08-20 03:33:00,
2013-08-19 22:38:00,68.5,63.5,30.06,West,270,0.0,0.0,84,0.00,,,0.00,meteohub,2013-08-20 03:38:00,
2013-08-19 22:43:00,68.5,63.5,30.06,West,270,0.0,0.0,84,0.00,,,0.00,meteohub,2013-08-20 03:43:00,
2013-08-19 22:48:00,68.4,63.7,30.06,West,270,0.0,0.0,85,0.00,,,0.00,meteohub,2013-08-20 03:48:00,
2013-08-19 22:53:00,68.4,63.7,30.06,West,270,0.0,0.0,85,0.00,,,0.00,meteohub,2013-08-20 03:53:00,
2013-08-19 22:58:00,68.2,63.5,30.06,West,270,0.0,0.0,85,0.00,,,0.00,meteohub,2013-08-20 03:58:00,
2013-08-19 23:01:00,68.2,63.5,30.06,West,270,0.0,0.0,85,0.00,,,0.00,meteohub,2013-08-20 04:01:00,
2013-08-19 23:02:00,68.0,63.3,30.06,West,270,0.0,0.0,85,0.00,,,0.00,meteohub,2013-08-20 04:02:00,
2013-08-19 23:03:00,68.0,63.3,30.06,West,270,0.0,0.0,85,0.00,,,0.00,meteohub,2013-08-20 04:03:00,
2013-08-19 23:08:00,67.8,63.5,30.05,West,270,0.0,0.0,86,0.00,,,0.00,meteohub,2013-08-20 04:08:00,
2013-08-19 23:13:00,67.6,63.3,30.05,West,270,0.0,0.0,86,0.00,,,0.00,meteohub,2013-08-20 04:13:00,
2013-08-19 23:18:00,67.6,63.3,30.05,West,270,0.0,0.0,86,0.00,,,0.00,meteohub,2013-08-20 04:18:00,
2013-08-19 23:24:00,67.5,63.1,30.05,West,270,0.0,0.0,86,0.00,,,0.00,meteohub,2013-08-20 04:24:00,
2013-08-19 23:29:00,67.5,63.1,30.05,West,270,0.0,0.0,86,0.00,,,0.00,meteohub,2013-08-20 04:29:00,
2013-08-19 23:34:00,67.3,63.0,30.05,West,270,0.0,0.0,86,0.00,,,0.00,meteohub,2013-08-20 04:34:00,
2013-08-19 23:39:00,67.3,63.3,30.05,West,270,0.0,0.0,87,0.00,,,0.00,meteohub,2013-08-20 04:39:00,
2013-08-19 23:44:00,66.9,63.0,30.05,South,172,0.0,0.0,87,0.00,,,0.00,meteohub,2013-08-20 04:44:00,
2013-08-19 23:49:00,66.9,63.0,30.05,South,172,0.0,0.0,87,0.00,,,0.00,meteohub,2013-08-20 04:49:00,
2013-08-19 23:54:00,66.7,62.8,30.05,South,172,0.0,0.0,87,0.00,,,0.00,meteohub,2013-08-20 04:54:00,
2013-08-19 23:59:00,66.7,62.8,30.05,South,172,0.0,0.0,87,0.00,,,0.00,meteohub,2013-08-20 04:59:00,